Wind_Speed
4 5 6 6 5 5 5 5 4 5 6 7 8 8 8 8 8 9 9 9 9 10 10 11 12 13 13 14 14 14 14 14 14 14 14 15 15 15 15 15 16 16
6 6 6 6 5 4 4 4 3 3 4 5 6 7 7 7 7 7 8 8 8 9 9 10 11 12 12 12 13 13 14 14 14 14 14 14 14 14 14 14 14 14
8 8 7 7 6 4 3 2 2 2 3 3 4 6 7 6 6 6 6 7 7 8 9 10 11 11 12 12 13 13 13 14 14 14 14 14 13 13 13 13 13 13
9 10 10 10 8 5 3 1 0 1 1 2 3 4 5 6 5 5 5 5 6 7 8 9 10 11 12 12 12 13 13 14 14 14 14 14 14 14 13 13 12 12
12 12 13 13 11 8 6 4 2 1 1 1 1 2 3 4 5 4 4 4 5 6 7 8 9 10 11 11 12 12 13 14 14 14 14 14 14 15 14 14 13 12
17 15 15 16 14 12 10 8 6 4 3 3 2 2 1 2 3 3 3 3 3 4 6 7 8 9 10 10 11 11 12 13 13 14 14 14 14 14 15 15 14 13
20 19 18 18 18 16 14 12 9 7 6 5 5 4 2 1 0 1 2 2 2 3 4 6 7 8 8 9 9 10 10 11 11 12 13 14 13 14 15 15 15 15
22 22 21 20 20 19 18 16 13 11 9 8 7 6 5 4 3 2 1 1 2 2 3 4 5 6 7 7 7 8 8 9 10 11 12 13 13 14 15 15 16 16
24 25 24 23 22 21 21 20 18 15 13 12 10 8 7 6 5 4 3 3 2 1 2 2 3 4 5 6 6 6 7 7 8 9 10 11 12 13 14 15 15 16
26 26 26 26 24 23 23 23 21 19 17 15 14 11 9 9 8 7 6 5 3 2 2 2 2 2 3 4 4 4 5 6 6 7 8 9 10 11 12 13 14 15
28 28 28 28 27 25 25 25 24 23 21 18 16 14 12 11 11 10 8 7 6 5 3 3 2 2 1 1 2 3 3 4 5 5 6 7 8 9 10 11 12 13
31 30 30 29 28 27 26 26 26 25 23 21 19 17 15 14 14 13 11 10 9 7 6 5 4 3 3 2 2 2 3 3 3 4 4 5 6 7 8 9 9 10
34 32 31 30 29 28 27 27 27 27 26 24 22 20 18 17 16 15 14 13 11 10 8 7 6 6 5 4 3 3 4 4 3 3 3 3 4 5 5 6 7 8
38 35 33 32 30 29 29 28 28 28 27 26 25 23 21 19 18 18 17 16 14 12 11 10 9 8 7 7 6 6 5 5 5 4 3 3 3 3 4 5 5 6
41 39 36 34 32 31 31 30 29 28 27 27 27 25 23 21 20 20 20 19 17 15 14 13 12 11 10 10 9 8 8 7 7 6 5 4 3 3 3 3 4 5
43 42 40 37 35 33 33 32 31 29 28 28 28 27 26 24 23 22 22 21 20 18 17 16 15 14 13 13 12 11 10 10 9 8 7 6 5 4 3 3 3 3
45 44 43 41 38 36 35 34 33 32 30 29 29 28 27 26 25 25 24 24 23 22 21 20 19 17 16 16 15 14 13 12 11 10 9 8 7 6 4 4 3 3
50 47 46 45 42 39 38 37 36 34 33 32 31 30 29 28 28 27 26 26 26 25 25 24 22 20 19 19 17 16 15 14 13 12 10 10 9 7 6 5 5 4
52 52 49 47 45 43 41 39 38 37 36 35 33 32 31 30 30 30 29 29 29 29 28 27 25 23 22 21 19 17 16 15 15 14 13 12 10 9 8 7 7 6
51 54 53 50 47 45 43 41 40 40 38 36 35 33 33 34 34 33 32 32 32 32 31 30 28 26 24 23 21 19 17 17 17 16 15 14 12 12 11 10 9 9
55 55 54 53 50 47 44 43 43 42 40 38 36 35 35 36 35 35 34 34 34 34 33 32 30 29 26 25 23 21 19 19 20 19 18 16 15 14 13 12 11 10
61 57 55 54 52 49 46 45 44 42 40 39 37 36 36 37 37 36 36 36 36 35 35 34 32 30 29 27 25 23 22 22 22 21 20 19 18 16 15 15 13 12
62 59 57 54 52 50 47 45 44 42 40 39 37 36 36 37 37 37 37 37 36 36 36 35 34 32 30 29 27 25 25 25 24 23 22 21 20 19 18 17 16 14
62 60 57 54 53 50 46 42 41 40 39 38 36 36 37 37 38 38 38 37 37 36 37 36 35 33 32 30 29 28 27 27 26 25 24 24 22 21 20 19 18 17
61 60 58 55 53 50 45 42 42 42 40 38 37 37 38 39 39 38 37 38 38 37 37 37 36 35 33 32 31 30 29 29 28 27 27 26 24 23 22 22 21 20
60 60 59 57 55 51 48 48 49 49 47 45 44 43 43 44 44 42 39 38 39 39 38 37 37 36 35 33 32 31 31 31 30 30 30 28 25 24 24 24 24 23
Wind_Direction
196 162 135 123 112 99 90 85 78 73 65 60 63 65 65 65 70 74 71 65 63 61 58 57 57 57 58 60 61 62 62 61 60 59 59 60 61 62 60 58 55 56
216 199 170 150 139 122 99 83 74 66 61 56 54 59 63 62 62 66 68 62 54 51 49 47 48 50 52 54 55 56 56 56 54 54 54 54 54 56 57 56 53 51
223 216 201 186 172 156 133 90 70 59 55 52 47 51 56 59 58 57 58 57 49 43 41 40 39 42 44 47 50 52 53 53 52 51 51 50 50 50 51 51 50 48
230 224 218 209 197 185 182 185 76 53 38 35 38 40 49 55 54 50 48 48 44 37 35 36 36 36 37 40 44 48 50 51 52 50 50 50 49 49 49 49 49 47
235 228 226 220 211 204 204 218 239 259 296 318 351 13 38 49 47 45 38 33 34 32 30 32 34 35 34 36 40 43 46 47 49 50 50 50 48 47 48 49 48 48
242 232 229 226 220 215 215 224 238 248 260 268 270 287 339 35 41 36 30 19 18 22 26 28 32 35 34 34 37 40 43 44 44 46 49 50 49 47 48 49 49 49
249 240 233 230 225 221 221 226 235 242 249 258 260 260 268 275 331 14 10 4 0 7 18 23 28 32 32 33 36 38 43 45 45 44 46 49 50 49 48 49 50 50
249 246 239 234 230 226 226 228 232 239 246 254 259 258 254 252 246 250 283 313 332 351 4 12 20 27 28 29 32 36 41 46 47 46 44 44 46 46 46 47 48 48
247 247 244 239 234 229 229 231 232 237 245 251 258 259 252 248 244 239 247 264 279 308 342 357 8 18 24 24 24 28 34 42 47 48 47 45 42 42 43 44 44 44
243 244 245 243 238 232 230 232 234 237 243 249 255 258 253 245 241 238 238 244 252 261 278 305 334 357 13 17 14 14 19 28 39 45 47 46 43 41 41 41 41 40
239 240 242 243 241 236 232 232 235 237 240 245 252 256 253 246 242 238 237 237 242 246 249 256 266 281 313 348 353 351 357 6 19 33 40 42 41 40 38 38 38 37
237 236 236 239 241 239 235 233 235 238 240 243 249 254 253 249 244 240 238 237 239 241 243 246 249 251 256 261 274 296 313 328 345 7 23 32 35 35 35 35 34 33
238 235 233 233 235 237 236 234 235 238 240 242 247 251 253 250 247 243 241 238 239 242 243 245 246 247 247 244 245 257 271 285 300 321 346 8 20 26 27 28 29 28
239 236 234 231 230 232 234 234 234 236 238 241 244 248 250 250 248 246 244 241 240 242 245 246 246 246 245 243 241 242 251 262 271 282 298 318 340 1 12 16 18 19
241 239 236 232 228 228 230 231 232 232 235 238 242 245 247 247 245 244 245 245 242 242 245 246 246 246 244 242 240 240 242 248 255 263 272 282 293 313 337 354 1 3
243 242 239 235 230 226 226 229 230 229 229 233 237 240 243 243 241 240 242 245 244 242 243 245 244 244 243 241 240 239 240 243 248 253 259 266 272 280 293 314 331 339
242 243 242 240 235 228 225 225 227 227 225 226 230 233 237 239 239 238 238 240 243 242 242 243 242 241 242 242 241 239 240 243 245 249 253 258 263 267 274 284 295 305
241 241 240 241 239 234 228 224 224 226 224 224 224 226 230 233 235 236 235 236 239 239 239 240 239 239 240 242 242 241 243 246 248 251 252 255 260 264 268 273 278 285
242 240 238 238 239 237 233 227 224 225 225 224 223 222 225 229 231 232 232 232 235 236 236 236 236 236 237 240 242 243 245 249 252 254 255 256 258 262 265 268 271 276
240 239 238 237 237 237 235 232 228 226 226 227 225 223 223 225 227 228 229 230 231 233 232 232 233 233 233 237 241 242 244 249 252 254 255 256 257 258 261 264 266 270
234 235 236 236 236 234 232 233 232 229 228 228 228 227 226 227 227 227 228 228 229 230 231 230 230 230 230 233 237 239 242 246 249 251 253 254 255 254 256 257 259 262
230 231 232 234 234 232 229 231 232 231 231 232 232 231 231 231 230 229 229 229 229 230 230 230 229 228 228 229 233 236 239 243 246 248 250 252 253 252 252 253 254 255
231 231 232 233 233 231 231 232 232 231 232 235 237 238 239 238 237 234 232 232 232 231 232 231 230 228 227 228 229 232 235 240 244 246 248 250 251 251 251 252 252 252
232 231 231 231 232 231 231 234 235 235 236 238 240 244 246 245 244 242 239 237 235 233 233 233 232 231 230 228 229 230 233 237 241 244 246 247 248 249 250 251 252 251
231 231 230 229 229 228 226 227 230 231 232 236 239 243 248 250 249 247 244 243 241 237 235 235 234 233 232 231 230 231 233 236 239 242 244 244 243 245 247 249 251 251
230 231 231 229 227 225 222 223 225 224 222 224 228 231 237 241 242 242 242 242 243 241 238 236 235 234 234 233 233 233 235 237 239 241 242 241 240 241 243 246 248 249
Height
11040 11040 11040 11040 11040 11039 11039 11039 11038 11038 11038 11037 11037 11037 11036 11035 11034 11033 11033 11032 11032 11031 11030 11030 11028 11027 11026 11025 11024 11024 11023 11022 11022 11021 11021 11020 11019 11019 11018 11017 11016 11015
11040 11040 11041 11040 11040 11040 11040 11040 11039 11039 11038 11038 11038 11038 11037 11037 11036 11035 11034 11034 11033 11033 11032 11031 11030 11029 11028 11027 11026 11025 11024 11023 11023 11022 11022 11021 11021 11020 11019 11018 11017 11017
11040 11040 11041 11041 11041 11040 11040 11040 11040 11039 11039 11039 11039 11038 11038 11038 11037 11037 11036 11036 11035 11034 11034 11033 11032 11031 11030 11029 11028 11027 11026 11025 11024 11023 11023 11022 11022 11021 11020 11019 11018 11018
11039 11040 11040 11040 11041 11041 11041 11040 11040 11040 11040 11039 11039 11039 11039 11038 11038 11038 11037 11037 11036 11036 11035 11035 11034 11033 11032 11031 11030 11029 11028 11027 11026 11025 11024 11023 11023 11022 11021 11020 11019 11019
11038 11039 11039 11040 11040 11041 11041 11041 11041 11040 11040 11040 11040 11039 11039 11039 11038 11038 11038 11038 11038 11037 11037 11036 11035 11035 11034 11033 11032 11031 11030 11029 11028 11027 11026 11025 11024 11023 11022 11021 11020 11020
11036 11037 11038 11039 11039 11040 11040 11040 11040 11041 11041 11040 11040 11040 11039 11039 11039 11039 11039 11039 11038 11038 11037 11037 11036 11036 11035 11034 11033 11033 11032 11031 11030 11029 11028 11027 11025 11025 11024 11022 11022 11021
11035 11036 11036 11037 11038 11039 11039 11040 11040 11040 11040 11040 11040 11040 11040 11040 11039 11039 11039 11039 11039 11039 11038 11038 11037 11037 11036 11036 11035 11034 11033 11033 11033 11031 11030 11029 11028 11026 11025 11024 11023 11022
11033 11034 11035 11035 11036 11037 11038 11038 11039 11040 11040 11040 11040 11040 11040 11040 11040 11040 11040 11039 11039 11039 11039 11038 11038 11037 11037 11037 11036 11036 11035 11034 11034 11033 11032 11031 11029 11028 11027 11026 11025 11024
11030 11031 11032 11033 11034 11035 11036 11037 11038 11038 11039 11039 11040 11040 11040 11040 11040 11040 11040 11040 11040 11039 11039 11039 11039 11038 11038 11037 11037 11037 11036 11035 11035 11034 11033 11032 11031 11030 11029 11028 11027 11026
11027 11028 11030 11031 11032 11033 11034 11035 11036 11037 11038 11038 11039 11040 11040 11040 11040 11040 11040 11040 11039 11039 11039 11039 11039 11039 11038 11038 11037 11037 11037 11036 11035 11035 11034 11033 11032 11031 11030 11029 11028 11027
11024 11025 11027 11028 11029 11031 11032 11033 11034 11035 11036 11037 11038 11039 11039 11039 11040 11040 11040 11040 11039 11039 11039 11039 11039 11039 11039 11038 11038 11037 11037 11036 11036 11035 11034 11033 11033 11032 11031 11030 11030 11029
11021 11022 11023 11025 11026 11028 11030 11031 11032 11033 11034 11036 11037 11038 11038 11039 11039 11039 11039 11039 11039 11039 11039 11039 11039 11039 11039 11039 11038 11038 11037 11037 11036 11035 11035 11034 11033 11033 11032 11031 11031 11030
11019 11019 11020 11021 11023 11025 11027 11028 11029 11031 11032 11034 11035 11036 11037 11038 11039 11039 11039 11038 11038 11038 11038 11038 11038 11038 11038 11038 11038 11038 11037 11037 11036 11036 11035 11035 11034 11033 11032 11032 11031 11031
11016 11017 11018 11019 11020 11021 11023 11024 11026 11027 11029 11031 11032 11034 11035 11036 11037 11037 11037 11037 11037 11038 11037 11037 11037 11037 11038 11038 11038 11038 11037 11037 11037 11036 11036 11035 11034 11034 11033 11032 11032 11031
11014 11015 11016 11016 11017 11018 11019 11020 11021 11023 11026 11028 11029 11031 11033 11034 11035 11036 11036 11036 11036 11037 11037 11037 11037 11037 11037 11037 11037 11037 11037 11036 11036 11036 11036 11035 11035 11034 11033 11033 11032 11031
11011 11012 11013 11013 11014 11015 11016 11017 11018 11019 11022 11024 11025 11027 11029 11031 11032 11033 11034 11034 11034 11035 11035 11035 11036 11036 11036 11036 11036 11036 11036 11036 11036 11036 11036 11035 11035 11034 11034 11033 11033 11032
11007 11009 11010 11011 11012 11012 11013 11014 11015 11016 11018 11019 11021 11023 11025 11027 11028 11030 11031 11031 11032 11033 11033 11033 11034 11034 11034 11034 11034 11034 11034 11035 11035 11035 11035 11035 11035 11035 11034 11034 11033 11033
11003 11005 11006 11007 11009 11010 11010 11011 11012 11013 11014 11015 11017 11019 11021 11023 11024 11025 11027 11028 11028 11029 11030 11031 11032 11032 11033 11033 11033 11033 11034 11034 11034 11035 11035 11035 11035 11035 11035 11034 11034 11033
11000 11000 11001 11003 11005 11007 11008 11009 11010 11010 11011 11012 11013 11015 11017 11019 11020 11021 11022 11024 11024 11025 11026 11028 11029 11030 11031 11031 11032 11032 11033 11033 11034 11034 11034 11035 11035 11035 11035 11035 11034 11034
10996 10995 10997 10998 11000 11003 11006 11007 11008 11008 11009 11010 11011 11013 11014 11014 11015 11016 11018 11019 11020 11021 11022 11024 11025 11027 11028 11029 11030 11031 11031 11032 11032 11032 11033 11033 11034 11035 11035 11035 11034 11034
10987 10988 10990 10993 10995 10998 11001 11004 11005 11006 11007 11008 11009 11011 11011 11012 11012 11014 11015 11016 11017 11018 11019 11021 11022 11024 11025 11026 11027 11028 11029 11029 11030 11030 11031 11031 11032 11033 11033 11033 11034 11033
10979 10982 10984 10987 10990 10993 10996 11000 11002 11004 11005 11006 11008 11009 11010 11010 11011 11011 11012 11013 11014 11016 11017 11018 11019 11020 11022 11023 11024 11025 11026 11026 11027 11027 11028 11029 11029 11030 11031 11031 11032 11032
10974 10977 10980 10983 10985 10988 10993 10997 11000 11002 11004 11006 11008 11009 11009 11009 11009 11010 11011 11011 11013 11014 11015 11015 11017 11018 11019 11020 11021 11022 11023 11023 11023 11024 11025 11026 11026 11027 11028 11029 11029 11030
10967 10971 10974 10978 10981 10986 10992 10997 11000 11003 11004 11006 11008 11008 11007 11007 11007 11008 11009 11009 11010 11012 11012 11013 11015 11016 11017 11018 11018 11019 11020 11020 11020 11021 11022 11022 11023 11024 11025 11026 11026 11027
10961 10964 10967 10971 10975 10981 10989 10993 10994 10996 10998 11002 11005 11005 11004 11005 11005 11005 11006 11007 11007 11009 11010 11011 11013 11014 11015 11016 11016 11017 11017 11017 11017 11018 11018 11018 11019 11021 11021 11022 11023 11023
10953 10956 10960 10964 10969 10975 10981 10983 10981 10981 10984 10987 10990 10992 10993 10994 10996 10997 10999 11001 11003 11004 11006 11008 11010 11012 11013 11014 11015 11015 11015 11015 11015 11015 11014 11015 11016 11017 11018 11018 11019 11020